Meteo Giornale » Osservazioni meteo Italia » Rimini

ore: 08:45 - Osservazioni Meteo Rimini
Lat. 44° 2' N Lon. 12° 37' E Alt. 12 metri s.l.m.

sereno Europe/Rome

25 °C

Sereno

Temp. 24 Ore

22 °C

29 °C

Nord

1.8 Km/h

Dew point 20 °C

Umidità 73 %

Visibilità  10 Km

Il sole sorge alle ore 05:25

Il sole tramonta alle ore 20:58

Data e Ora Cielo e Fenomeni T °C DP °C Um. % Pres. hPa Vis. km Vento km/h
Oggi h: 08:45 sereno Sereno 25 20 73 1010 10 N 1.8
Oggi h: 08:15 sereno Sereno 24 20 78 1010 10 N 5.5
Oggi h: 07:45 sereno Sereno 22 20 88 1010 10 N 3.7
Oggi h: 07:15 sereno Sereno 22 19 83 1010 10 N 3.7
Oggi h: 06:45 sereno Sereno 23 19 78 1010 10 N 3.7
Oggi h: 06:15 sereno Sereno 23 19 78 1010 10 N 0
Oggi h: 05:45 sereno Sereno 23 19 78 1010 10 N 5.5
Oggi h: 05:15 sereno Sereno 23 19 78 1010 10 S/SE 7.4
Oggi h: 04:45 sereno Sereno 23 19 78 1010 10 S/SE 7.4
Oggi h: 04:15 sereno Sereno 23 19 78 1010 10 N 5.5
Oggi h: 03:45 sereno Sereno 23 19 78 1011 10 N 5.5
Oggi h: 02:45 sereno Sereno 22 18 78 1011 10 N 5.5
Oggi h: 02:15 sereno Sereno 22 19 83 1011 10 N 3.7
Oggi h: 01:45 sereno Sereno 22 19 83 1011 10 N 5.5
Oggi h: 01:15 sereno Sereno 24 20 78 1012 10 N 3.7
Oggi h: 00:45 sereno Sereno 24 20 78 1012 10 N 3.7
Oggi h: 00:15 sereno Sereno 23 20 83 1012 10 N 3.7
Ieri h: 23:45 sereno Sereno 25 23 88 1012 10 N 5.5
Ieri h: 23:15 sereno Sereno 25 22 83 1012 10 N 3.7
Ieri h: 22:45 sereno Sereno 26 22 78 1012 10 N 0
Ieri h: 22:15 sereno Sereno 27 22 74 1011 10 N 3.7
Ieri h: 21:45 sereno Sereno 27 22 74 1011 10 N 3.7
Ieri h: 21:15 sereno Sereno 28 22 69 1011 10 N 3.7
Ieri h: 20:45 sereno Sereno 28 22 69 1011 10 E/SE 9.3
Ieri h: 20:15 sereno Sereno 28 22 69 1011 10 E/SE 11.1
Ieri h: 19:45 sereno Sereno 28 22 69 1011 10 E 11.1
Ieri h: 19:15 sereno Sereno 29 23 70 1012 10 E 14.8
Ieri h: 18:45 sereno Sereno 29 22 66 1012 10 E 18.5
Ieri h: 17:45 poco_nuvoloso Poco Nuvoloso 29 22 66 1012 10 E 16.7
Ieri h: 17:15 poco_nuvoloso Poco Nuvoloso 29 22 66 1012 10 E 16.7
Ieri h: 16:45 sereno Sereno 28 22 69 1013 10 E 16.7
Ieri h: 16:15 sereno Sereno 29 22 66 1013 10 E 20.3
Ieri h: 15:45 sereno Sereno 29 22 66 1014 10 E 18.5
Ieri h: 15:15 sereno Sereno 29 21 62 1014 10 E 18.5
Ieri h: 14:45 sereno Sereno 29 21 62 1014 10 E/NE 18.5
Ieri h: 14:15 poco_nuvoloso Poco Nuvoloso 29 21 62 1015 10 E/NE 16.7
Ieri h: 13:45 poco_nuvoloso Poco Nuvoloso 29 21 62 1015 10 E/NE 14.8
Ieri h: 13:15 poco_nuvoloso Poco Nuvoloso 29 21 62 1016 10 E/NE 13
Ieri h: 12:45 poco_nuvoloso Poco Nuvoloso 29 21 62 1016 10 NE 11.1
Ieri h: 12:15 poco_nuvoloso Poco Nuvoloso 28 21 65 1016 10 N/NE 11.1
Ieri h: 11:45 sereno Sereno 28 21 65 1016 10 NE 11.1
Ieri h: 11:15 sereno Sereno 28 21 65 1016 10 NE 11.1
Ieri h: 10:45 sereno Sereno 28 21 65 1016 10 NE 9.3
Ieri h: 10:15 sereno Sereno 28 21 65 1016 10 NE 9.3
Ieri h: 09:45 sereno Sereno 28 21 65 1017 10 N 5.5